Regional Weather Roundup
Issued by NWS

Home | Current Version | Previous Version | Graphics & Text | Print | Product List | Glossary On
Versions: 1 2 3 4 5 6 7 8 9 10 11 12 13 14 15 16 17 18 19 20 21 22 23 24 25 26 27 28 29 30 31 32 33 34 35 36 37 38 39 40 41 42 43 44 45 46 47 48 49 50
000
ASUS43 KTOP 291408
RWRKS

WEATHER ROUNDUP FOR KANSAS
NATIONAL WEATHER SERVICE GOODLAND KS
900 AM CDT THU SEP 29 2016

NOTE:  "FAIR" INDICATES FEW OR NO CLOUDS BELOW 12,000 FEET WITH NO
SIGNIFICANT WEATHER AND/OR OBSTRUCTIONS TO VISIBILITY.

KSZ001>006-013>018-027>032-041>047-291500-
NORTHWEST KANSAS

CITY           SKY/WX    TMP DP  RH WIND       PRES   REMARKS
GOODLAND       SUNNY     49  42  77 S8        30.41R
HAYS           SUNNY     48  37  66 NW3       30.45R
HILL CITY      SUNNY     45  42  89 CALM      30.46R
RUSSELL        SUNNY     51  47  86 N5        30.43R
$$

KSZ061>065-074>080-084>089-291500-
SOUTHWEST KANSAS

CITY           SKY/WX    TMP DP  RH WIND       PRES   REMARKS
DODGE CITY     SUNNY     50  44  80 N3        30.44R
ELKHART          N/A     51  39  63 SE6         N/A
GARDEN CITY    SUNNY     52  42  69 E5        30.43R
GREAT BEND     SUNNY     48  39  71 N3        30.44R
LIBERAL        SUNNY     52  39  62 CALM      30.44R
PRATT          SUNNY     47  44  86 N5        30.43R
$$

KSZ066>073-081>083-090>101-291500-
SOUTHEAST KANSAS

CITY           SKY/WX    TMP DP  RH WIND       PRES   REMARKS
CHANUTE        SUNNY     55  50  83 N9        30.36R
COFFEYVILLE    SUNNY     55  50  83 N9        30.36R
HUTCHINSON     SUNNY     52  48  86 NW8       30.43R
MEDICINE LODGE   N/A     50  47  89 N7        30.42R
NEWTON         SUNNY     51  48  89 N7        30.41R
PARSONS        SUNNY     55  51  86 N5        30.36R
WICHITA INTL   MOSUNNY   55  49  80 N8        30.40R
WICHITA JABRA  SUNNY     53  49  86 N8        30.39R
WICHITA MCCONL SUNNY     55  48  79 NE8       30.40R
WINFIELD       SUNNY     54  49  83 N6        30.40R
$$

KSZ007>012-019>026-033>040-048>060-102>105-291500-
NORTHEAST KANSAS

CITY           SKY/WX    TMP DP  RH WIND       PRES   REMARKS
CONCORDIA      SUNNY     50  47  89 W5        30.44R
EMPORIA        SUNNY     53  49  86 N5        30.39R
LAWRENCE       SUNNY     53  51  93 W6        30.38R
MANHATTAN      SUNNY     52  48  86 CALM      30.41S
MARYSVILLE     SUNNY     48  46  93 N6        30.43R
OLATHE IND     SUNNY     52  50  93 NW9       30.37R
OLATHE EXE     SUNNY     54  49  83 N9        30.36R
SALINA         SUNNY     52  47  83 NW8       30.44R
TOPEKA BILLARD SUNNY     54  49  83 NW6       30.40R
TOPEKA FORBES  SUNNY     54  50  86 N7        30.39R
$$




USA.gov is the U.S. government's official web portal to all federal, state and local government web resources and services.